Location: Dodgeville
(42.9600°N, 90.1300°W)
Time: 21:55:47
(UTC-05:00)

Amateur Radio Satellites - All Passes

Search period start: 04 July 2015 21:25
Search period end: 05 July 2015 21:25
Location: Dodgeville, 42.9600°N, 90.1300°W

Satellite Date Start Highest point End Downlink Frequencies (MHz)
Time Altitude Azimuth
SEEDS 04 Jul 21:35:40 21:39:32 36° 263° (W) 21:43:26 437.485
HO-68 04 Jul 21:36:46 21:43:29 42° 262° (W) 21:50:11 435.675
STRAND 1 04 Jul 21:39:20 21:42:50 18° 298° (WNW) 21:46:09 437.568
DX 1 04 Jul 21:42:49 21:45:56 20° 66° (ENE) 21:49:10 434.975-435.025
AAUSAT CUBESAT 2 04 Jul 21:45:58 21:49:53 40° 262° (W) 21:53:50 437.432
BRITE-PL 04 Jul 21:49:18 21:51:19 12° 274° (W) 21:52:57 437.365/2234.400
M-CUBED/EXP-1 PRIME 04 Jul 21:50:21 21:54:35 68° 107° (ESE) 21:59:06 437.505
CUBEBUG 2 04 Jul 21:55:42 22:00:00 76° 258° (WSW) 22:04:13 437.445
ZACube-1 04 Jul 21:56:44 22:00:55 67° 75° (ENE) 22:05:04 437.345
DELFI C3 04 Jul 21:59:18 22:03:18 87° 81° (E) 22:07:21 145.870
UKube-1 04 Jul 22:02:37 22:06:19 28° 68° (ENE) 22:10:04 .
50 SAT 04 Jul 22:04:28 22:06:56 17° 67° (ENE) 22:09:31 437.505
DOVE 4 04 Jul 22:04:33 22:07:42 17° 269° (W) 22:10:35 437.250
Oscar 11 04 Jul 22:04:49 22:09:03 57° 260° (W) 22:13:18 145.826/435.025
HUMSAT D 04 Jul 22:13:21 22:17:13 43° 72° (ENE) 22:21:07 437.325/437.525
COMPASS 1 04 Jul 22:13:37 22:16:34 18° 269° (W) 22:19:26 437.405
AISAT 04 Jul 22:20:55 22:24:40 28° 68° (ENE) 22:28:30 437.250
ANTELSAT 04 Jul 22:21:07 22:22:11 11° 87° (E) 22:23:31 437.575/2403.000
TIGRISAT 04 Jul 22:32:16 22:34:33 14° 90° (E) 22:37:03 435.000
FUNcube-1 04 Jul 22:32:56 22:37:00 48° 261° (W) 22:41:03 145.935
CUBEBUG 1 04 Jul 22:38:08 22:41:33 23° 67° (ENE) 22:45:03 437.445
Cosmos 2499 04 Jul 22:46:39 22:54:27 73° 265° (W) 23:02:51 435.465 / 435.565
UWE-3 04 Jul 22:47:00 22:50:38 26° 265° (W) 22:54:09 435.000/436.395/437.385
CINEMA 3 04 Jul 22:49:52 22:51:15 11° 272° (W) 22:52:21 145.822/145.860
AUBIESAT-1 04 Jul 22:50:48 22:54:36 33° 294° (WNW) 22:58:35 437.475
GONETS M04 04 Jul 22:52:12 22:57:28 17° 282° (WNW) 23:02:14
ESTCUBE 1 04 Jul 22:53:40 22:57:51 38° 70° (ENE) 23:02:05 437.505/2401.250
VELOX 1 04 Jul 23:09:15 23:13:44 84° 78° (ENE) 23:18:14 145.980
UNISAT 6 04 Jul 23:10:46 23:14:52 38° 97° (E) 23:19:03 437.425
QB50P2 04 Jul 23:14:20 23:17:03 17° 91° (E) 23:19:54 145.880/145.840
POPSAT HIP 1 04 Jul 23:15:01 23:17:40 17° 91° (E) 23:20:28 437.405
DX 1 04 Jul 23:17:45 23:21:56 42° 262° (W) 23:26:06 434.975-435.025
M-CUBED/EXP-1 PRIME 04 Jul 23:26:45 23:29:02 14° 300° (WNW) 23:31:13 437.505
ZACube-1 04 Jul 23:36:55 23:37:49 10° 273° (W) 23:38:27 437.345
50 SAT 04 Jul 23:37:45 23:41:20 36° 263° (W) 23:44:54 437.505
SPROUT 04 Jul 23:38:29 23:42:07 28° 69° (ENE) 23:45:49 437.525
UKube-1 04 Jul 23:38:39 23:42:24 27° 265° (W) 23:46:07 .
HUMSAT D 04 Jul 23:50:38 23:53:14 16° 270° (W) 23:55:40 437.325/437.525
QB50P1 04 Jul 23:53:00 23:57:02 43° 98° (E) 00:01:03 145.935-145.965
ANTELSAT 04 Jul 23:55:08 23:59:31 72° 285° (WNW) 00:03:58 437.575/2403.000
AISAT 04 Jul 23:57:15 00:01:12 30° 265° (W) 00:05:06 437.250
PCSat 05 Jul 00:06:52 00:11:36 30° 47° (NE) 00:16:23 145.827
NANOSAT C BR1 05 Jul 00:06:58 00:11:09 62° 101° (E) 00:15:18 145.865
TIGRISAT 05 Jul 00:07:25 00:11:41 55° 287° (WNW) 00:16:02 435.000
CUBEBUG 1 05 Jul 00:13:36 00:17:44 36° 263° (W) 00:21:50 437.445
DUCHIFAT 1 05 Jul 00:13:46 00:17:58 73° 102° (ESE) 00:22:08 145.980
TISAT 1 05 Jul 00:18:03 00:22:08 48° 73° (ENE) 00:26:14 437.305
POLYITAN 1 05 Jul 00:19:20 00:23:34 89° 91° (E) 00:27:48 437.675
BUGSAT 1 05 Jul 00:29:03 00:33:07 71° 101° (ESE) 00:37:08 437.445
ESTCUBE 1 05 Jul 00:31:17 00:34:52 22° 267° (W) 00:38:22 437.505/2401.250
SO-50 05 Jul 00:31:53 00:35:48 23° 40° (NE) 00:39:45 436.795
Cosmos 2499 05 Jul 00:42:59 00:46:34 13° 281° (WNW) 00:49:38 435.465 / 435.565
UNISAT 6 05 Jul 00:48:04 00:51:28 22° 293° (WNW) 00:54:48 437.425
QB50P2 05 Jul 00:49:11 00:53:12 42° 288° (WNW) 00:57:10 145.880/145.840
POPSAT HIP 1 05 Jul 00:49:49 00:53:48 43° 288° (WNW) 00:57:47 437.405
Cosmos 2491 05 Jul 00:52:43 00:57:58 18° 56° (ENE) 01:03:39 435.465 / 435.565
BEESAT 05 Jul 00:55:24 00:59:07 24° 66° (ENE) 01:02:57 436.000
SWISSCUBE 05 Jul 01:10:23 01:14:41 35° 69° (ENE) 01:19:04 437.505
SPROUT 05 Jul 01:14:26 01:18:10 27° 265° (W) 01:21:50 437.525
ITUPSAT 1 05 Jul 01:15:53 01:20:13 36° 69° (ENE) 01:24:37 437.325
QB50P1 05 Jul 01:29:44 01:32:36 18° 295° (WNW) 01:35:20 145.935-145.965
NANOSAT C BR1 05 Jul 01:44:31 01:46:32 13° 297° (WNW) 01:48:21 145.865
RS-15 05 Jul 01:45:36 01:55:15 40° 109° (ESE) 02:05:22 29.354- 29.394
PCSat 05 Jul 01:50:03 01:55:14 45° 246° (WSW) 02:00:21 145.827
DUCHIFAT 1 05 Jul 01:51:51 01:53:15 11° 298° (WNW) 01:54:26 145.980
TISAT 1 05 Jul 01:55:39 01:58:13 15° 270° (W) 02:00:38 437.305
KKS-1 05 Jul 02:02:40 02:05:44 19° 65° (ENE) 02:08:57 437.445
BUGSAT 1 05 Jul 02:06:56 02:08:04 11° 298° (WNW) 02:08:59 437.445
SO-50 05 Jul 02:11:53 02:16:48 63° 240° (WSW) 02:21:36 436.795
AIST 1 05 Jul 02:13:20 02:16:47 23° 71° (ENE) 02:20:16
BEESAT 05 Jul 02:32:16 02:36:46 40° 262° (W) 02:41:17 436.000
Oscar 19 05 Jul 02:32:19 02:37:28 74° 103° (ESE) 02:42:36 437.125/150
Gurwin Techsat 1B 05 Jul 02:42:14 02:46:42 28° 94° (E) 02:51:16 435.225
ITAMSAT 1 05 Jul 02:45:27 02:49:50 27° 94° (E) 02:54:18 435.822/435.867
Cosmos 2491 05 Jul 02:47:48 02:56:37 80° 81° (E) 03:05:20 435.465 / 435.565
SWISSCUBE 05 Jul 02:48:33 02:52:37 26° 266° (W) 02:56:37 437.505
STARS 05 Jul 02:52:21 02:56:22 37° 70° (ENE) 03:00:26 437.465
ITUPSAT 1 05 Jul 02:54:10 02:58:12 26° 266° (W) 03:02:10 437.325
YUBILEINY 05 Jul 03:22:16 03:30:38 57° 91° (E) 03:39:06 435.215
JAS-2 05 Jul 03:29:11 03:34:43 27° 93° (E) 03:40:54 435.910
KKS-1 05 Jul 03:37:49 03:42:06 44° 261° (W) 03:46:22 437.445
AO-7 05 Jul 03:49:21 03:55:29 23° 90° (E) 04:01:56 29.400- 29.500
AIST 1 05 Jul 03:50:37 03:54:30 31° 269° (W) 03:58:18
RS-15 05 Jul 03:56:22 04:07:12 63° 312° (NW) 04:18:26 29.354- 29.394
MOZHAYETS 4 05 Jul 03:59:21 04:03:22 32° 69° (ENE) 04:07:28
Oscar 19 05 Jul 04:13:13 04:16:17 16° 299° (WNW) 04:19:09 437.125/150
Gurwin Techsat 1B 05 Jul 04:21:52 04:26:49 40° 291° (WNW) 04:31:43 435.225
ITAMSAT 1 05 Jul 04:24:37 04:29:28 39° 291° (WNW) 04:34:14 435.822/435.867
HORYU 2 05 Jul 04:29:05 04:33:18 40° 98° (E) 04:37:31 437.375
STARS 05 Jul 04:29:31 04:32:57 21° 267° (W) 04:36:17 437.465
Cosmos 2491 05 Jul 04:46:14 04:52:35 22° 280° (W) 04:58:31 435.465 / 435.565
Cosmos 2504 05 Jul 04:53:13 04:57:47 20° 82° (E) 05:02:39 435.465 / 435.565
JAS-2 05 Jul 05:13:38 05:20:05 59° 288° (WNW) 05:27:16 435.910
YUBILEINY 05 Jul 05:20:15 05:27:59 33° 293° (WNW) 05:35:34 435.215
MOZHAYETS 4 05 Jul 05:36:42 05:40:36 27° 266° (W) 05:44:29
STRAND 1 05 Jul 05:39:43 05:42:13 14° 60° (ENE) 05:44:56 437.568
AO-7 05 Jul 05:40:51 05:49:15 79° 291° (WNW) 05:57:35 29.400- 29.500
Cubesat XI-IV 05 Jul 06:01:03 06:03:17 13° 86° (E) 06:05:51 437.490
PRISM 05 Jul 06:02:30 06:05:03 16° 65° (ENE) 06:07:44 437.425
CUBESAT XI-V 05 Jul 06:04:10 06:08:45 53° 73° (ENE) 06:13:23 437.345
HORYU 2 05 Jul 06:06:18 06:09:42 21° 294° (WNW) 06:13:01 437.375
RS-15 05 Jul 06:13:23 06:22:33 27° 343° (NNW) 06:31:54 29.354- 29.394
BEESAT 3 05 Jul 06:22:05 06:23:50 13° 110° (ESE) 06:25:49 437.485
BEESAT 2 05 Jul 06:34:56 06:37:01 14° 111° (ESE) 06:39:17 435.950
Cosmos 2504 05 Jul 06:42:24 06:49:19 69° 281° (W) 06:56:15 435.465 / 435.565
JAS-2 05 Jul 07:02:05 07:04:13 11° 304° (NW) 07:06:01 435.910
CUTE-I 05 Jul 07:04:26 07:09:38 50° 99° (E) 07:14:49 437.470
CUSAT 1 05 Jul 07:09:59 07:14:35 22° 94° (E) 07:18:34 437.405
STRAND 1 05 Jul 07:15:38 07:20:47 84° 255° (WSW) 07:26:00 437.568
ISS 05 Jul 07:30:08 07:32:27 19° 135° (SE) 07:34:50 145.825
AO-7 05 Jul 07:35:11 07:40:56 20° 310° (NW) 07:46:21 29.400- 29.500
PRISM 05 Jul 07:36:06 07:40:09 48° 260° (W) 07:44:14 437.425
Cubesat XI-IV 05 Jul 07:38:46 07:44:11 82° 285° (WNW) 07:49:32 437.490
CUBESAT XI-V 05 Jul 07:43:28 07:46:34 17° 271° (W) 07:49:31 437.345
VERMONT LUNAR 05 Jul 07:51:06 07:53:44 25° 160° (SSE) 07:56:24 437.305
AIST 2 05 Jul 07:56:50 08:00:21 26° 114° (ESE) 08:03:58 435.215
BEESAT 3 05 Jul 07:57:18 08:01:20 63° 306° (NW) 08:05:26 437.485
O/OREOS (USA 219) 05 Jul 07:57:21 08:01:49 81° 293° (WNW) 08:06:18 437.305
GONETS M04 05 Jul 08:01:05 08:07:18 23° 81° (E) 08:13:51
AUBIESAT-1 05 Jul 08:05:36 08:08:34 30° 65° (ENE) 08:11:40 437.475
BEESAT 2 05 Jul 08:10:36 08:14:40 59° 307° (NW) 08:18:46 435.950
BRITE-PL 05 Jul 08:11:51 08:15:14 23° 92° (E) 08:18:36 437.365/2234.400
DANDE 05 Jul 08:16:48 08:23:54 66° 98° (E) 08:29:20 436.750
PHONESAT 2.4 05 Jul 08:21:02 08:22:28 12° 150° (SSE) 08:24:00 2401.200-2431.200
DOVE 4 05 Jul 08:25:27 08:26:29 11° 88° (E) 08:27:46 437.250
RS-15 05 Jul 08:30:36 08:39:51 27° 17° (NNE) 08:49:36 29.354- 29.394
CUTE 1.7 + AOD 2 05 Jul 08:33:19 08:35:13 13° 88° (E) 08:37:20 437.475
CANX-2 05 Jul 08:36:17 08:38:49 16° 90° (E) 08:41:32 2200.000
M-CUBED/EXP-1 PRIME 05 Jul 08:40:19 08:43:36 77° 253° (WSW) 08:47:04 437.505
Cosmos 2504 05 Jul 08:41:03 08:43:13 11° 304° (NW) 08:44:55 435.465 / 435.565
CUTE-I 05 Jul 08:45:11 08:49:26 24° 296° (WNW) 08:53:32 437.470
CUSAT 1 05 Jul 08:51:01 08:57:09 48° 283° (WNW) 09:01:48 437.405
HO-68 05 Jul 09:03:00 09:09:30 37° 96° (E) 09:16:05 435.675
CINEMA 3 05 Jul 09:04:19 09:06:25 14° 90° (E) 09:08:45 145.822/145.860
ISS 05 Jul 09:05:25 09:08:36 57° 331° (NNW) 09:11:49 145.825
SEEDS 05 Jul 09:18:48 09:22:40 33° 96° (E) 09:26:32 437.485
GOMX 1 05 Jul 09:20:39 09:24:52 79° 102° (ESE) 09:29:01 467.674
Cubesat XI-IV 05 Jul 09:21:12 09:23:32 13° 302° (WNW) 09:25:35 437.490
ANTELSAT 05 Jul 09:21:40 09:23:01 12° 62° (ENE) 09:24:33 437.575/2403.000
VERMONT LUNAR 05 Jul 09:27:18 09:30:22 53° 175° (S) 09:33:26 437.305
AAUSAT CUBESAT 2 05 Jul 09:27:58 09:31:36 28° 95° (E) 09:35:16 437.432
TIGRISAT 05 Jul 09:32:38 09:34:54 15° 64° (ENE) 09:37:19 435.000
AIST 2 05 Jul 09:34:52 09:38:49 35° 312° (NW) 09:42:45 435.215
Cosmos 2499 05 Jul 09:36:07 09:39:32 15° 79° (E) 09:43:22 435.465 / 435.565
BEESAT 3 05 Jul 09:39:04 09:40:10 11° 327° (NNW) 09:41:08 437.485
DELFI C3 05 Jul 09:39:44 09:40:52 11° 88° (E) 09:42:14 145.870
O/OREOS (USA 219) 05 Jul 09:40:58 09:42:06 11° 314° (NW) 09:43:01 437.305
AUBIESAT-1 05 Jul 09:41:25 09:43:30 15° 263° (W) 09:45:32 437.475
ZACube-1 05 Jul 09:46:15 09:47:42 12° 88° (E) 09:49:24 437.345
CUBEBUG 2 05 Jul 09:46:22 09:49:25 20° 92° (E) 09:52:37 437.445
BRITE-PL 05 Jul 09:50:04 09:53:53 30° 291° (WNW) 09:57:30 437.365/2234.400
Oscar 11 05 Jul 09:51:39 09:55:09 24° 93° (E) 09:58:42 145.826/435.025
BEESAT 2 05 Jul 09:52:51 09:53:39 10° 327° (NNW) 09:54:18 435.950
COMPASS 1 05 Jul 09:54:26 09:58:39 66° 100° (E) 10:02:51 437.405
GONETS M04 05 Jul 09:54:31 10:03:20 77° 280° (W) 10:12:07
PHONESAT 2.4 05 Jul 09:56:45 09:59:57 37° 165° (SSE) 10:03:12 2401.200-2431.200
DOVE 4 05 Jul 10:00:41 10:04:48 61° 286° (WNW) 10:08:53 437.250
DANDE 05 Jul 10:02:17 10:07:14 20° 290° (WNW) 10:11:12 436.750
CUTE 1.7 + AOD 2 05 Jul 10:07:21 10:11:34 58° 286° (WNW) 10:15:47 437.475
QB50P2 05 Jul 10:08:42 10:11:12 16° 65° (ENE) 10:13:51 145.880/145.840
POPSAT HIP 1 05 Jul 10:09:15 10:11:42 16° 65° (ENE) 10:14:18 437.405
UNISAT 6 05 Jul 10:10:52 10:14:46 36° 71° (ENE) 10:18:43 437.425
CANX-2 05 Jul 10:10:55 10:15:03 47° 287° (WNW) 10:19:11 2200.000
FUNcube-1 05 Jul 10:20:18 10:23:53 27° 95° (E) 10:27:36 145.935
UWE-3 05 Jul 10:34:51 10:38:59 52° 100° (E) 10:43:12 435.000/436.395/437.385
CINEMA 3 05 Jul 10:39:57 10:44:00 50° 286° (WNW) 10:48:06 145.822/145.860
ISS 05 Jul 10:43:02 10:45:30 20° 350° (N) 10:47:58 145.825
RS-15 05 Jul 10:43:55 10:55:24 61° 47° (NE) 11:07:24 29.354- 29.394
QB50P1 05 Jul 10:46:31 10:50:25 37° 71° (ENE) 10:54:21 145.935-145.965
HO-68 05 Jul 10:50:37 10:57:22 45° 295° (WNW) 11:04:02 435.675
SEEDS 05 Jul 10:54:54 10:58:18 23° 292° (WNW) 11:01:37 437.485
ANTELSAT 05 Jul 10:55:00 10:59:17 73° 258° (WSW) 11:03:34 437.575/2403.000
NANOSAT C BR1 05 Jul 11:00:07 11:04:14 52° 73° (ENE) 11:08:22 145.865
VELOX 1 05 Jul 11:00:19 11:02:44 15° 89° (E) 11:05:20 145.980
AAUSAT CUBESAT 2 05 Jul 11:03:35 11:07:08 26° 291° (WNW) 11:10:36 437.432
VERMONT LUNAR 05 Jul 11:04:06 11:07:04 40° 192° (SSW) 11:10:03 437.305
DX 1 05 Jul 11:05:15 11:09:03 29° 96° (E) 11:12:53 434.975-435.025
DUCHIFAT 1 05 Jul 11:06:41 11:10:50 60° 74° (ENE) 11:15:00 145.980
TIGRISAT 05 Jul 11:07:04 11:11:16 55° 260° (W) 11:15:28 435.000
DELFI C3 05 Jul 11:12:23 11:16:25 61° 285° (WNW) 11:20:26 145.870
50 SAT 05 Jul 11:12:42 11:15:44 22° 94° (E) 11:18:51 437.505
POLYITAN 1 05 Jul 11:12:54 11:17:07 75° 75° (ENE) 11:21:21 437.675
BUGSAT 1 05 Jul 11:19:33 11:23:41 55° 74° (ENE) 11:27:48 437.445
ZACube-1 05 Jul 11:20:21 11:24:32 62° 285° (WNW) 11:28:47 437.345
CUBEBUG 2 05 Jul 11:22:23 11:26:16 36° 289° (WNW) 11:30:12 437.445
UKube-1 05 Jul 11:24:32 11:28:40 43° 99° (E) 11:32:48 .
Cosmos 2499 05 Jul 11:24:38 11:31:41 89° 277° (W) 11:38:55 435.465 / 435.565
Oscar 11 05 Jul 11:27:29 11:31:23 32° 290° (WNW) 11:35:14 145.826/435.025
HUMSAT D 05 Jul 11:31:34 11:35:44 75° 102° (ESE) 11:39:56 437.325/437.525
COMPASS 1 05 Jul 11:31:56 11:33:50 13° 296° (WNW) 11:35:34 437.405
PHONESAT 2.4 05 Jul 11:34:21 11:37:45 57° 181° (S) 11:41:10 2401.200-2431.200
QB50P2 05 Jul 11:42:36 11:46:44 50° 261° (W) 11:50:53 145.880/145.840
POPSAT HIP 1 05 Jul 11:43:04 11:47:12 51° 260° (W) 11:51:21 437.405
AISAT 05 Jul 11:46:22 11:50:38 47° 99° (E) 11:54:53 437.250
UNISAT 6 05 Jul 11:48:31 11:51:43 20° 268° (W) 11:54:50 437.425
GONETS M04 05 Jul 11:56:33 12:02:01 17° 304° (NW) 12:07:01
FUNcube-1 05 Jul 11:56:36 12:00:11 27° 291° (WNW) 12:03:45 145.935
CUBEBUG 1 05 Jul 12:01:22 12:05:24 37° 97° (E) 12:09:26 437.445
UWE-3 05 Jul 12:12:40 12:15:10 15° 295° (WNW) 12:17:33 435.000/436.395/437.385
Oscar 19 05 Jul 12:13:24 12:16:22 16° 61° (ENE) 12:19:32 437.125/150
ISS 05 Jul 12:20:15 12:22:43 20° 10° (N) 12:25:12 145.825
ESTCUBE 1 05 Jul 12:21:45 12:26:19 74° 102° (ESE) 12:30:49 437.505/2401.250
QB50P1 05 Jul 12:23:16 12:26:26 20° 268° (W) 12:29:29 145.935-145.965
VELOX 1 05 Jul 12:35:22 12:39:41 53° 287° (WNW) 12:43:58 145.980
NANOSAT C BR1 05 Jul 12:38:03 12:40:25 14° 270° (W) 12:42:37 145.865
DX 1 05 Jul 12:41:34 12:45:13 26° 293° (WNW) 12:48:48 434.975-435.025
VERMONT LUNAR 05 Jul 12:41:45 12:43:33 14° 207° (SSW) 12:45:18 437.305
DUCHIFAT 1 05 Jul 12:45:16 12:47:06 12° 272° (W) 12:48:43 145.980
50 SAT 05 Jul 12:46:58 12:50:23 28° 290° (WNW) 12:53:45 437.505
RS-15 05 Jul 12:56:45 13:07:43 46° 249° (WSW) 13:18:51 29.354- 29.394
BUGSAT 1 05 Jul 12:57:25 12:59:33 13° 271° (W) 13:01:28 437.445
SPROUT 05 Jul 12:59:28 13:03:36 46° 98° (E) 13:07:43 437.525
UKube-1 05 Jul 13:01:27 13:04:31 19° 295° (WNW) 13:07:27 .
HUMSAT D 05 Jul 13:09:47 13:10:57 11° 297° (WNW) 13:11:56 437.325/437.525
PHONESAT 2.4 05 Jul 13:12:22 13:15:31 33° 198° (SSW) 13:18:41 2401.200-2431.200
Cosmos 2499 05 Jul 13:21:56 13:26:11 16° 301° (WNW) 13:30:07 435.465 / 435.565
AISAT 05 Jul 13:23:52 13:26:54 18° 295° (WNW) 13:29:47 437.250
YUBILEINY 05 Jul 13:31:27 13:38:45 29° 65° (ENE) 13:46:15 435.215
TISAT 1 05 Jul 13:37:03 13:41:15 80° 103° (ESE) 13:45:25 437.305
CUBEBUG 1 05 Jul 13:38:12 13:41:34 22° 293° (WNW) 13:44:49 437.445
Oscar 19 05 Jul 13:50:06 13:55:13 72° 257° (WSW) 14:00:22 437.125/150
ISS 05 Jul 13:56:24 13:59:37 58° 29° (NNE) 14:02:49 145.825
Cosmos 2491 05 Jul 13:57:12 14:02:26 18° 78° (ENE) 14:08:08 435.465 / 435.565
ESTCUBE 1 05 Jul 14:00:29 14:02:38 13° 298° (WNW) 14:04:35 437.505/2401.250
Gurwin Techsat 1B 05 Jul 14:04:01 14:09:04 47° 70° (ENE) 14:14:11 435.225
ITAMSAT 1 05 Jul 14:04:05 14:09:01 46° 70° (ENE) 14:14:02 435.822/435.867
BEESAT 05 Jul 14:31:15 14:35:53 47° 99° (E) 14:40:31 436.000
SPROUT 05 Jul 14:36:31 14:39:22 17° 295° (WNW) 14:42:05 437.525
BEESAT 3 05 Jul 14:38:19 14:40:35 15° 38° (NE) 14:42:56 437.485
AIST 1 05 Jul 14:45:22 14:47:19 13° 85° (E) 14:49:30
SWISSCUBE 05 Jul 14:46:55 14:51:45 74° 103° (ESE) 14:56:33 437.505
AO-7 05 Jul 14:49:07 14:56:26 37° 59° (ENE) 15:03:56 29.400- 29.500
PCSat 05 Jul 14:50:43 14:54:30 20° 107° (ESE) 14:58:28 145.827
BEESAT 2 05 Jul 14:51:55 14:54:24 16° 38° (NE) 14:56:57 435.950
PHONESAT 2.4 05 Jul 14:52:32 14:52:58 10° 212° (SSW) 14:53:17 2401.200-2431.200
ITUPSAT 1 05 Jul 14:52:45 14:57:36 76° 103° (ESE) 15:02:25 437.325
TISAT 1 05 Jul 15:15:36 15:16:27 10° 298° (WNW) 15:17:05 437.305
JAS-2 05 Jul 15:27:39 15:32:46 69° 74° (ENE) 15:38:14 435.910
YUBILEINY 05 Jul 15:27:40 15:36:19 65° 267° (W) 15:44:56 435.215
KKS-1 05 Jul 15:28:02 15:31:59 31° 96° (E) 15:35:56 437.445
HORYU 2 05 Jul 15:28:09 15:32:17 41° 71° (ENE) 15:36:28 437.375
ISS 05 Jul 15:33:25 15:35:45 18° 226° (SW) 15:38:02 145.825
ITAMSAT 1 05 Jul 15:44:37 15:48:47 23° 268° (W) 15:52:52 435.822/435.867
Gurwin Techsat 1B 05 Jul 15:45:07 15:49:20 23° 268° (W) 15:53:27 435.225
Cosmos 2491 05 Jul 15:49:21 15:58:12 89° 97° (E) 16:07:04 435.465 / 435.565
BEESAT 05 Jul 16:09:50 16:13:26 21° 295° (WNW) 16:16:54 436.000
BEESAT 3 05 Jul 16:15:02 16:19:07 80° 238° (WSW) 16:23:06 437.485
STARS 05 Jul 16:16:58 16:21:20 64° 101° (ESE) 16:25:41 437.465
AIST 2 05 Jul 16:17:18 16:20:51 25° 44° (NE) 16:24:23 435.215
AIST 1 05 Jul 16:20:12 16:24:31 56° 281° (W) 16:28:52
Cosmos 2504 05 Jul 16:26:21 16:33:15 39° 73° (ENE) 16:40:41 435.465 / 435.565
SWISSCUBE 05 Jul 16:26:28 16:29:03 14° 299° (WNW) 16:31:26 437.505
SO-50 05 Jul 16:27:05 16:31:21 35° 116° (ESE) 16:35:47 436.795
O/OREOS (USA 219) 05 Jul 16:27:37 16:31:21 25° 56° (NE) 16:35:08 437.305
BEESAT 2 05 Jul 16:28:53 16:32:59 73° 239° (WSW) 16:36:59 435.950
PCSat 05 Jul 16:32:08 16:37:30 60° 304° (WNW) 16:42:54 145.827
ITUPSAT 1 05 Jul 16:32:24 16:34:56 14° 299° (WNW) 16:37:15 437.325
AO-7 05 Jul 16:40:48 16:48:59 56° 258° (WSW) 16:57:10 29.400- 29.500
CUTE-I 05 Jul 16:50:45 16:53:07 13° 59° (ENE) 16:55:43 437.470
KKS-1 05 Jul 17:04:49 17:08:31 26° 293° (WNW) 17:12:08 437.445
HORYU 2 05 Jul 17:05:56 17:09:09 19° 268° (W) 17:12:16 437.375
JAS-2 05 Jul 17:15:56 17:18:45 14° 274° (W) 17:21:21 435.910
Cubesat XI-IV 05 Jul 17:23:05 17:27:21 25° 65° (ENE) 17:31:44 437.490
YUBILEINY 05 Jul 17:28:40 17:31:36 12° 286° (WNW) 17:33:48 435.215
MOZHAYETS 4 05 Jul 17:29:54 17:34:34 67° 101° (ESE) 17:39:11
Cosmos 2491 05 Jul 17:50:01 17:56:30 21° 301° (WNW) 18:02:36 435.465 / 435.565
STARS 05 Jul 17:55:02 17:57:18 14° 297° (WNW) 17:59:24 437.465
AIST 2 05 Jul 17:55:37 17:59:31 37° 243° (WSW) 18:03:20 435.215
CUBESAT XI-V 05 Jul 18:01:58 18:03:50 13° 87° (E) 18:05:57 437.345
O/OREOS (USA 219) 05 Jul 18:06:43 18:10:53 36° 254° (WSW) 18:15:00 437.305
SO-50 05 Jul 18:07:33 18:11:55 33° 315° (NW) 18:16:22 436.795
GONETS M04 05 Jul 18:10:39 18:12:53 11° 50° (NE) 18:15:46
Cosmos 2504 05 Jul 18:18:30 18:25:31 43° 270° (W) 18:32:55 435.465 / 435.565
PCSat 05 Jul 18:19:29 18:22:09 13° 326° (NNW) 18:24:38 145.827
CUTE-I 05 Jul 18:27:06 18:32:29 87° 80° (E) 18:37:55 437.470
GOMX 1 05 Jul 18:54:34 18:56:21 12° 63° (ENE) 18:58:20 467.674
DANDE 05 Jul 18:58:49 19:01:16 26° 73° (ENE) 19:03:33 436.750
Cubesat XI-IV 05 Jul 19:02:03 19:07:12 46° 261° (W) 19:12:24 437.490
MOZHAYETS 4 05 Jul 19:08:41 19:11:17 15° 297° (WNW) 19:13:43
PRISM 05 Jul 19:18:00 19:21:12 21° 93° (E) 19:24:27 437.425
BRITE-PL 05 Jul 19:22:24 19:27:17 37° 71° (ENE) 19:31:57 437.365/2234.400
STRAND 1 05 Jul 19:25:41 19:30:11 31° 95° (E) 19:34:44 437.568
CUSAT 1 05 Jul 19:28:05 19:30:37 43° 263° (W) 19:33:08 437.405
CUTE 1.7 + AOD 2 05 Jul 19:28:19 19:29:33 11° 63° (ENE) 19:30:59 437.475
CANX-2 05 Jul 19:31:02 19:33:03 14° 64° (ENE) 19:35:14 2200.000
DOVE 4 05 Jul 19:31:08 19:33:59 16° 66° (ENE) 19:36:55 437.250
HO-68 05 Jul 19:32:58 19:39:00 32° 61° (ENE) 19:45:11 435.675
CUBESAT XI-V 05 Jul 19:37:11 19:41:52 69° 285° (WNW) 19:46:30 437.345
GONETS M04 05 Jul 20:03:46 20:12:18 57° 76° (ENE) 20:20:50
CINEMA 3 05 Jul 20:07:12 20:09:52 16° 66° (ENE) 20:12:38 145.822/145.860
CUTE-I 05 Jul 20:11:12 20:13:25 12° 274° (W) 20:15:16 437.470
SEEDS 05 Jul 20:11:58 20:15:25 26° 69° (ENE) 20:18:58 437.485
AAUSAT CUBESAT 2 05 Jul 20:19:59 20:23:08 22° 68° (ENE) 20:26:24 437.432
GOMX 1 05 Jul 20:28:50 20:33:59 88° 257° (WSW) 20:38:48 467.674
ZACube-1 05 Jul 20:44:13 20:45:23 11° 63° (ENE) 20:46:46 437.345
CUBEBUG 2 05 Jul 20:46:03 20:49:00 19° 67° (ENE) 20:52:03 437.445
COMPASS 1 05 Jul 20:46:20 20:50:20 49° 73° (ENE) 20:54:23 437.405
Oscar 11 05 Jul 20:47:41 20:50:54 21° 67° (ENE) 20:54:13 145.826/435.025
PRISM 05 Jul 20:52:55 20:56:44 33° 290° (WNW) 21:00:29 437.425
CUTE 1.7 + AOD 2 05 Jul 21:00:44 21:04:55 73° 258° (WSW) 21:09:10 437.475
BRITE-PL 05 Jul 21:01:04 21:05:50 30° 265° (W) 21:10:17 437.365/2234.400
CANX-2 05 Jul 21:04:22 21:08:31 60° 259° (W) 21:12:43 2200.000
STRAND 1 05 Jul 21:04:47 21:09:25 34° 292° (WNW) 21:13:58 437.568
DOVE 4 05 Jul 21:06:39 21:11:26 58° 260° (W) 21:15:57 437.250
FUNcube-1 05 Jul 21:17:20 21:20:41 24° 69° (ENE) 21:24:04 145.935
